| time (UTC) | temp F | wind direction | speed MPH | gust MPH | rain 1hr in | rain 24hr in | rain mn in | humidity % | barometer mb |
| 20260505115600 | 47 | 132 | 2.0 | 3.0 | 0.00 | 0.11 | 0.00 | 62 | 1008.0 |
| 20260505115059 | 47 | 106 | 0.0 | 3.0 | 0.00 | 0.11 | 0.00 | 61 | 1008.0 |
| 20260505114558 | 47 | 10 | 0.0 | 2.0 | 0.00 | 0.11 | 0.00 | 60 | 1008.4 |
| 20260505114057 | 47 | 311 | 0.0 | 2.0 | 0.00 | 0.11 | 0.00 | 59 | 1008.0 |
| 20260505113600 | 47 | 332 | 0.0 | 2.0 | 0.00 | 0.11 | 0.00 | 58 | 1007.7 |
| 20260505113059 | 47 | 22 | 0.0 | 2.0 | 0.00 | 0.11 | 0.00 | 59 | 1007.4 |
| 20260505113047 | 47 | 76 | 1.0 | 5.0 | 0.00 | 0.11 | 0.00 | 58 | 1007.0 |
| 20260505112058 | 47 | 290 | 0.0 | 5.0 | 0.00 | 0.11 | 0.00 | 58 | 1006.7 |
| 20260505111556 | 47 | 55 | 2.0 | 4.0 | 0.00 | 0.11 | 0.00 | 57 | 1006.7 |
| 20260505111054 | 48 | 320 | 2.0 | 5.0 | 0.00 | 0.11 | 0.00 | 55 | 1007.4 |
| 20260505110606 | 48 | 1 | 2.0 | 5.0 | 0.00 | 0.11 | 0.00 | 54 | 1006.0 |
| 20260505110108 | 48 | 350 | 2.0 | 5.0 | 0.00 | 0.11 | 0.00 | 53 | 1006.3 |
| 20260505102050 | 49 | 320 | 2.0 | 4.0 | 0.00 | 0.11 | 0.00 | 54 | 1006.7 |
| 20260505101549 | 49 | 320 | 3.0 | 5.0 | 0.00 | 0.11 | 0.00 | 53 | 1006.3 |
| 20260505101049 | 49 | 286 | 2.0 | 5.0 | 0.00 | 0.11 | 0.00 | 53 | 1006.3 |
| 20260505100548 | 49 | 334 | 2.0 | 5.0 | 0.00 | 0.11 | 0.00 | 55 | 1005.6 |
| 20260505100046 | 50 | 4 | 1.0 | 5.0 | 0.00 | 0.11 | 0.00 | 55 | 1005.2 |
| 20260505095548 | 50 | 46 | 2.0 | 6.0 | 0.00 | 0.11 | 0.00 | 56 | 1005.2 |
| 20260505095046 | 50 | 25 | 2.0 | 6.0 | 0.00 | 0.11 | 0.00 | 56 | 1005.2 |
| 20260505094544 | 50 | 358 | 2.0 | 5.0 | 0.00 | 0.11 | 0.00 | 55 | 1005.6 |
| 20260505094046 | 50 | 20 | 2.0 | 5.0 | 0.00 | 0.11 | 0.00 | 54 | 1005.2 |
| 20260505093544 | 50 | 0 | 2.0 | 5.0 | 0.00 | 0.11 | 0.00 | 53 | 1005.6 |
| 20260505093045 | 51 | 14 | 3.0 | 5.0 | 0.00 | 0.11 | 0.00 | 54 | 1005.6 |
| 20260505093031 | 51 | 71 | 2.0 | 4.0 | 0.00 | 0.11 | 0.00 | 56 | 1005.6 |
| 20260505092048 | 51 | 23 | 0.0 | 4.0 | 0.00 | 0.11 | 0.00 | 54 | 1005.6 |
| 20260505092029 | 51 | 303 | 0.0 | 4.0 | 0.00 | 0.11 | 0.00 | 54 | 1005.2 |
| 20260505091042 | 51 | 311 | 1.0 | 5.0 | 0.00 | 0.11 | 0.00 | 54 | 1005.2 |
| 20260505090553 | 51 | 33 | 2.0 | 8.0 | 0.00 | 0.11 | 0.00 | 53 | 1005.2 |
| 20260505090041 | 51 | 32 | 2.0 | 8.0 | 0.00 | 0.11 | 0.00 | 55 | 1004.9 |
| 20260505085542 | 51 | 50 | 3.0 | 5.0 | 0.00 | 0.11 | 0.00 | 57 | 1005.2 |
| 20260505085041 | 52 | 345 | 2.0 | 5.0 | 0.00 | 0.11 | 0.00 | 57 | 1004.9 |
| 20260505084539 | 52 | 309 | 3.0 | 4.0 | 0.00 | 0.11 | 0.00 | 56 | 1004.9 |
| 20260505084040 | 52 | 358 | 3.0 | 4.0 | 0.00 | 0.11 | 0.00 | 55 | 1004.6 |
| 20260505083539 | 53 | 15 | 2.0 | 5.0 | 0.00 | 0.11 | 0.00 | 56 | 1004.6 |
| 20260505083040 | 53 | 336 | 2.0 | 6.0 | 0.00 | 0.11 | 0.00 | 55 | 1004.2 |
| 20260505082538 | 53 | 348 | 2.0 | 6.0 | 0.00 | 0.11 | 0.00 | 54 | 1003.9 |
| 20260505082301 | 52 | 23 | 0.0 | 5.0 | 0.00 | 0.11 | 0.00 | 56 | 1003.9 |
| 20260505081535 | 52 | 346 | 2.0 | 4.0 | 0.00 | 0.11 | 0.00 | 58 | 1003.9 |
| 20260505081043 | 52 | 71 | 2.0 | 4.0 | 0.00 | 0.11 | 0.00 | 58 | 1003.5 |
| 20260505080535 | 52 | 326 | 4.0 | 4.0 | 0.00 | 0.11 | 0.00 | 57 | 1003.5 |
| 20260505080034 | 52 | 279 | 1.0 | 3.0 | 0.00 | 0.11 | 0.00 | 57 | 1003.2 |
| 20260505075756 | 52 | 339 | 1.0 | 3.0 | 0.00 | 0.11 | 0.00 | 58 | 1003.2 |
| 20260505075034 | 52 | 48 | 2.0 | 3.0 | 0.00 | 0.11 | 0.00 | 58 | 1003.2 |
| 20260505074801 | 52 | 327 | 2.0 | 3.0 | 0.00 | 0.11 | 0.00 | 59 | 1003.2 |
| 20260505074033 | 52 | 332 | 2.0 | 3.0 | 0.00 | 0.11 | 0.00 | 57 | 1002.9 |
| 20260505073533 | 52 | 351 | 1.0 | 2.0 | 0.00 | 0.11 | 0.00 | 58 | 1002.9 |
| 20260505073032 | 52 | 3 | 1.0 | 2.0 | 0.00 | 0.11 | 0.00 | 59 | 1002.9 |
| 20260505072531 | 52 | 5 | 0.0 | 2.0 | 0.00 | 0.11 | 0.00 | 60 | 1003.2 |
| 20260505072032 | 53 | 233 | 0.0 | 3.0 | 0.00 | 0.11 | 0.00 | 58 | 1003.2 |
| 20260505072020 | 53 | 154 | 0.0 | 3.0 | 0.00 | 0.11 | 0.00 | 58 | 1003.2 |
| 20260505071030 | 53 | 130 | 0.0 | 2.0 | 0.00 | 0.11 | 0.00 | 57 | 1002.9 |
| 20260505070528 | 53 | 131 | 1.0 | 1.0 | 0.00 | 0.11 | 0.00 | 55 | 1002.5 |
| 20260505070030 | 53 | 318 | 1.0 | 2.0 | 0.00 | 0.11 | 0.00 | 55 | 1002.9 |
| 20260505065528 | 53 | 106 | 0.0 | 2.0 | 0.00 | 0.11 | 0.00 | 55 | 1002.5 |
| 20260505065248 | 53 | 283 | 0.0 | 2.0 | 0.00 | 0.11 | 0.00 | 55 | 1002.5 |
| 20260505064526 | 54 | 89 | 0.0 | 2.0 | 0.00 | 0.11 | 0.00 | 55 | 1002.2 |
| 20260505064028 | 54 | 41 | 0.0 | 2.0 | 0.00 | 0.11 | 0.00 | 55 | 1002.2 |
| 20260505063526 | 54 | 109 | 0.0 | 4.0 | 0.00 | 0.11 | 0.00 | 61 | 1002.2 |
| 20260505063515 | 55 | 48 | 1.0 | 4.0 | 0.00 | 0.11 | 0.00 | 53 | 1002.5 |
| 20260505062526 | 55 | 198 | 0.0 | 3.0 | 0.00 | 0.11 | 0.00 | 53 | 1002.2 |
| 20260505062243 | 55 | 91 | 0.0 | 3.0 | 0.00 | 0.11 | 0.00 | 51 | 1002.5 |
| 20260505061748 | 56 | 140 | 1.0 | 2.0 | 0.00 | 0.11 | 0.00 | 49 | 1002.2 |
| 20260505061024 | 56 | 185 | 0.0 | 2.0 | 0.00 | 0.11 | 0.00 | 49 | 1002.2 |
| 20260505060521 | 56 | 203 | 0.0 | 4.0 | 0.00 | 0.11 | 0.00 | 50 | 1002.2 |
| 20260505060024 | 56 | 300 | 2.0 | 4.0 | 0.00 | 0.11 | 0.00 | 48 | 1002.2 |
| 20260505055745 | 56 | 113 | 1.0 | 3.0 | 0.00 | 0.11 | 0.00 | 48 | 1001.7 |
| 20260505055021 | 56 | 135 | 1.0 | 3.0 | 0.00 | 0.11 | 0.00 | 47 | 1002.2 |
| 20260505054521 | 56 | 27 | 2.0 | 4.0 | 0.00 | 0.11 | 0.00 | 48 | 1001.7 |
| 20260505054022 | 57 | 182 | 2.0 | 4.0 | 0.00 | 0.11 | 0.00 | 47 | 1002.2 |
| 20260505053751 | 57 | 123 | 0.0 | 5.0 | 0.00 | 0.11 | 0.00 | 47 | 1001.7 |
| 20260505053027 | 57 | 75 | 0.0 | 5.0 | 0.00 | 0.11 | 0.00 | 48 | 1001.7 |
| 20260505052524 | 57 | 289 | 2.0 | 5.0 | 0.00 | 0.11 | 0.00 | 47 | 1001.4 |
| 20260505052031 | 58 | 214 | 2.0 | 5.0 | 0.00 | 0.11 | 0.00 | 48 | 1001.7 |
| 20260505051517 | 57 | 350 | 1.0 | 5.0 | 0.00 | 0.11 | 0.00 | 46 | 1001.7 |
| 20260505051017 | 57 | 330 | 3.0 | 4.0 | 0.00 | 0.11 | 0.00 | 48 | 1001.4 |
| 20260505050515 | 57 | 265 | 1.0 | 5.0 | 0.00 | 0.11 | 0.00 | 50 | 1001.7 |
| 20260505041512 | 60 | 311 | 0.0 | 2.0 | 0.00 | 0.11 | 0.11 | 52 | 1001.1 |
| 20260505041010 | 60 | 322 | 1.0 | 3.0 | 0.00 | 0.11 | 0.11 | 50 | 1001.1 |
| 20260505040511 | 60 | 301 | 2.0 | 4.0 | 0.00 | 0.11 | 0.11 | 51 | 1001.1 |
| 20260505040012 | 61 | 339 | 2.0 | 4.0 | 0.00 | 0.11 | 0.11 | 51 | 1001.1 |
| 20260505035508 | 61 | 359 | 1.0 | 4.0 | 0.00 | 0.11 | 0.11 | 56 | 1001.1 |
| 20260505035010 | 61 | 300 | 0.0 | 3.0 | 0.00 | 0.11 | 0.11 | 56 | 1001.1 |
| 20260505034508 | 61 | 248 | 2.0 | 3.0 | 0.00 | 0.11 | 0.11 | 56 | 1001.1 |
| 20260505034010 | 61 | 279 | 0.0 | 3.0 | 0.00 | 0.11 | 0.11 | 58 | 1000.7 |
| 20260505033507 | 61 | 260 | 1.0 | 2.0 | 0.00 | 0.11 | 0.11 | 57 | 1000.7 |
| 20260505033009 | 61 | 215 | 1.0 | 3.0 | 0.00 | 0.11 | 0.11 | 59 | 1000.4 |
| 20260505032725 | 61 | 244 | 2.0 | 3.0 | 0.00 | 0.11 | 0.11 | 58 | 1000.4 |
| 20260505032007 | 62 | 214 | 3.0 | 3.0 | 0.00 | 0.11 | 0.11 | 60 | 1000.4 |
| 20260505031505 | 61 | 244 | 1.0 | 3.0 | 0.00 | 0.11 | 0.11 | 64 | 1000.4 |
| 20260505031444 | 61 | 262 | 2.0 | 3.0 | 0.00 | 0.11 | 0.11 | 67 | 1000.4 |
| 20260505030503 | 62 | 252 | 0.0 | 5.0 | 0.00 | 0.11 | 0.11 | 68 | 1000.1 |
| 20260505030004 | 62 | 207 | 3.0 | 5.0 | 0.00 | 0.11 | 0.11 | 70 | 1000.4 |
| 20260505025504 | 62 | 240 | 4.0 | 4.0 | 0.00 | 0.11 | 0.11 | 71 | 1000.4 |
| 20260505025002 | 61 | 218 | 2.0 | 5.0 | 0.00 | 0.11 | 0.11 | 73 | 1000.4 |
| 20260505024501 | 61 | 204 | 2.0 | 7.0 | 0.00 | 0.11 | 0.11 | 74 | 1000.4 |
| 20260505024227 | 62 | 239 | 3.0 | 8.0 | 0.00 | 0.11 | 0.11 | 74 | 1000.4 |
| 20260505023001 | 61 | 190 | 4.0 | 6.0 | 0.00 | 0.11 | 0.11 | 74 | 1000.1 |
| 20260505022502 | 62 | 268 | 2.0 | 6.0 | 0.00 | 0.11 | 0.11 | 74 | 1000.1 |
| 20260505021959 | 62 | 235 | 2.0 | 6.0 | 0.00 | 0.11 | 0.11 | 74 | 999.7 |
| 20260505021459 | 62 | 210 | 3.0 | 5.0 | 0.00 | 0.11 | 0.11 | 74 | 999.7 |
| 20260505020959 | 62 | 244 | 3.0 | 6.0 | 0.00 | 0.11 | 0.11 | 74 | 999.4 |
| 20260505020458 | 62 | 283 | 2.0 | 6.0 | 0.00 | 0.11 | 0.11 | 75 | 999.4 |
| 20260505015958 | 62 | 209 | 4.0 | 8.0 | 0.00 | 0.11 | 0.11 | 75 | 999.0 |
| 20260505015455 | 62 | 202 | 2.0 | 8.0 | 0.00 | 0.11 | 0.11 | 75 | 999.0 |
| 20260505014957 | 62 | 204 | 3.0 | 6.0 | 0.00 | 0.11 | 0.11 | 74 | 999.0 |
| 20260505014457 | 62 | 182 | 4.0 | 6.0 | 0.00 | 0.11 | 0.11 | 74 | 999.0 |
| 20260505013957 | 62 | 251 | 4.0 | 6.0 | 0.00 | 0.11 | 0.11 | 73 | 998.7 |
| 20260505013454 | 62 | 213 | 4.0 | 6.0 | 0.00 | 0.11 | 0.11 | 73 | 998.4 |
| 20260505012954 | 63 | 218 | 3.0 | 9.0 | 0.00 | 0.11 | 0.11 | 72 | 998.4 |
| 20260505012454 | 63 | 227 | 3.0 | 9.0 | 0.00 | 0.11 | 0.11 | 70 | 998.4 |
| 20260505011953 | 64 | 230 | 4.0 | 9.0 | 0.00 | 0.11 | 0.11 | 67 | 998.4 |
| 20260505011455 | 64 | 229 | 6.0 | 9.0 | 0.00 | 0.11 | 0.11 | 67 | 998.4 |
| 20260505010954 | 65 | 184 | 4.0 | 8.0 | 0.00 | 0.11 | 0.11 | 63 | 998.4 |
| 20260505010453 | 66 | 217 | 4.0 | 7.0 | 0.00 | 0.11 | 0.11 | 63 | 998.4 |
| 20260505005955 | 66 | 222 | 4.0 | 6.0 | 0.00 | 0.11 | 0.11 | 61 | 998.4 |
| 20260505005451 | 66 | 216 | 4.0 | 6.0 | 0.00 | 0.11 | 0.11 | 63 | 998.4 |
| 20260505005216 | 67 | 225 | 2.0 | 7.0 | 0.00 | 0.11 | 0.11 | 64 | 997.9 |
| 20260505004449 | 67 | 178 | 5.0 | 7.0 | 0.00 | 0.11 | 0.11 | 60 | 997.9 |
| 20260505003950 | 67 | 176 | 3.0 | 6.0 | 0.00 | 0.11 | 0.11 | 59 | 997.9 |
| 20260505003448 | 67 | 197 | 2.0 | 4.0 | 0.00 | 0.11 | 0.11 | 60 | 997.2 |
| 20260505002949 | 67 | 188 | 2.0 | 4.0 | 0.00 | 0.11 | 0.11 | 59 | 996.9 |
| 20260505002450 | 67 | 218 | 3.0 | 4.0 | 0.00 | 0.11 | 0.11 | 59 | 996.6 |
| 20260505001949 | 67 | 184 | 4.0 | 4.0 | 0.00 | 0.11 | 0.11 | 59 | 996.6 |
| 20260505001447 | 67 | 152 | 2.0 | 6.0 | 0.00 | 0.11 | 0.11 | 59 | 996.6 |
| 20260505001213 | 67 | 210 | 2.0 | 6.0 | 0.00 | 0.11 | 0.11 | 57 | 996.6 |
| 20260505000704 | 68 | 203 | 3.0 | 6.0 | 0.00 | 0.11 | 0.11 | 58 | 996.9 |
| 20260504235945 | 68 | 233 | 3.0 | 5.0 | 0.00 | 0.11 | 0.11 | 57 | 996.6 |
| 20260504235657 | 68 | 219 | 2.0 | 7.0 | 0.00 | 0.11 | 0.11 | 57 | 996.6 |
| 20260504235547 | 68 | 272 | 2.0 | 7.0 | 0.00 | 0.11 | 0.11 | 57 | 996.6 |
| 20260504234443 | 68 | 214 | 3.0 | 13.0 | 0.00 | 0.11 | 0.11 | 57 | 996.6 |
| 20260504233942 | 68 | 223 | 3.0 | 13.0 | 0.00 | 0.11 | 0.11 | 56 | 996.9 |
| 20260504233702 | 69 | 248 | 7.0 | 11.0 | 0.00 | 0.11 | 0.11 | 56 | 997.2 |
| 20260504232942 | 68 | 242 | 4.0 | 7.0 | 0.00 | 0.11 | 0.11 | 54 | 997.2 |
| 20260504232653 | 64 | 272 | 3.0 | 5.0 | 0.11 | 0.11 | 0.11 | 69 | 996.9 |
| 20260504232648 | 74 | 298 | 4.0 | 14.0 | 0.00 | 0.00 | 0.00 | 41 | 997.2 |
| 20260504232642 | 78 | 261 | 6.0 | 10.0 | 0.00 | 0.00 | 0.00 | 34 | 997.2 |
| 20260504232629 | 79 | 239 | 4.0 | 10.0 | 0.00 | 0.00 | 0.00 | 35 | 997.6 |
| 20260504232614 | 78 | 254 | 3.0 | 8.0 | 0.00 | 0.00 | 0.00 | 33 | 997.6 |
| 20260504232605 | 78 | 205 | 4.0 | 9.0 | 0.00 | 0.00 | 0.00 | 37 | 998.4 |
| 20260504232547 | 79 | 233 | 6.0 | 14.0 | 0.00 | 0.00 | 0.00 | 28 | 998.4 |
| 20260504232452 | 65 | 258 | 7.0 | 8.0 | 0.11 | 0.11 | 0.11 | 61 | 997.2 |
| 20260504232445 | 68 | 237 | 4.0 | 5.0 | 0.01 | 0.11 | 0.11 | 52 | 997.2 |
| 20260504232320 | 64 | 266 | 0.0 | 6.0 | 0.11 | 0.11 | 0.11 | 71 | 996.9 |
| 20260504232312 | 64 | 306 | 3.0 | 6.0 | 0.11 | 0.11 | 0.11 | 67 | 996.9 |
| 20260504232308 | 64 | 286 | 4.0 | 6.0 | 0.11 | 0.11 | 0.11 | 66 | 997.2 |
| 20260504232300 | 62 | 352 | 3.0 | 13.0 | 0.11 | 0.11 | 0.11 | 74 | 997.9 |
| 20260504232255 | 61 | 248 | 5.0 | 13.0 | 0.11 | 0.11 | 0.11 | 82 | 998.4 |
| 20260504232249 | 62 | 262 | 3.0 | 10.0 | 0.10 | 0.10 | 0.11 | 78 | 997.6 |
| 20260504232245 | 64 | 239 | 3.0 | 18.0 | 0.10 | 0.10 | 0.10 | 73 | 997.2 |
| 20260504232229 | 74 | 0 | 3.0 | 18.0 | 0.04 | 0.04 | 0.06 | 50 | 998.4 |
| 20260504232112 | 75 | 229 | 14.0 | 14.0 | 0.00 | 0.00 | 0.00 | 42 | 997.2 |
| 20260504232107 | 76 | 278 | 4.0 | 8.0 | 0.00 | 0.00 | 0.00 | 38 | 997.2 |
| 20260504232058 | 77 | 240 | 4.0 | 10.0 | 0.00 | 0.00 | 0.00 | 36 | 996.9 |
| 20260504232044 | 67 | 257 | 2.0 | 5.0 | 0.07 | 0.11 | 0.11 | 53 | 996.9 |
| 20260504231925 | 78 | 266 | 5.0 | 10.0 | 0.00 | 0.00 | 0.00 | 34 | 997.2 |
| 20260504231921 | 78 | 241 | 8.0 | 10.0 | 0.00 | 0.00 | 0.00 | 36 | 997.2 |
| 20260504231759 | 78 | 274 | 9.0 | 11.0 | 0.00 | 0.00 | 0.00 | 34 | 997.2 |
| 20260504231752 | 79 | 249 | 7.0 | 11.0 | 0.00 | 0.00 | 0.00 | 34 | 997.2 |
| 20260504231748 | 79 | 300 | 4.0 | 9.0 | 0.00 | 0.00 | 0.00 | 34 | 997.2 |
| 20260504231740 | 78 | 276 | 3.0 | 9.0 | 0.00 | 0.00 | 0.00 | 34 | 997.6 |
| 20260504231729 | 78 | 332 | 4.0 | 11.0 | 0.00 | 0.00 | 0.00 | 36 | 997.2 |
| 20260504231721 | 78 | 249 | 3.0 | 11.0 | 0.00 | 0.00 | 0.00 | 34 | 997.6 |
| 20260504231717 | 78 | 240 | 5.0 | 11.0 | 0.00 | 0.00 | 0.00 | 34 | 997.6 |
| 20260504231711 | 78 | 247 | 4.0 | 11.0 | 0.00 | 0.00 | 0.00 | 34 | 997.6 |
| 20260504231706 | 78 | 242 | 7.0 | 11.0 | 0.00 | 0.00 | 0.00 | 35 | 997.9 |
| 20260504231657 | 78 | 225 | 4.0 | 9.0 | 0.00 | 0.00 | 0.00 | 34 | 997.9 |
| 20260504231539 | 79 | 275 | 6.0 | 8.0 | 0.00 | 0.00 | 0.00 | 35 | 997.9 |
| 20260504231526 | 67 | 246 | 3.0 | 7.0 | 0.11 | 0.11 | 0.11 | 56 | 996.9 |
| 20260504231407 | 78 | 245 | 3.0 | 9.0 | 0.00 | 0.00 | 0.00 | 31 | 997.9 |
| 20260504231401 | 78 | 237 | 8.0 | 9.0 | 0.00 | 0.00 | 0.00 | 33 | 997.9 |
| 20260504231354 | 78 | 207 | 3.0 | 11.0 | 0.00 | 0.00 | 0.00 | 30 | 998.4 |
| 20260504231349 | 79 | 296 | 3.0 | 11.0 | 0.00 | 0.00 | 0.00 | 33 | 997.9 |
| 20260504231343 | 79 | 234 | 4.0 | 11.0 | 0.00 | 0.00 | 0.00 | 29 | 998.4 |
| 20260504231338 | 79 | 243 | 9.0 | 11.0 | 0.00 | 0.00 | 0.00 | 31 | 998.4 |
| 20260504231325 | 80 | 265 | 4.0 | 9.0 | 0.00 | 0.00 | 0.00 | 29 | 998.4 |
| 20260504231320 | 79 | 194 | 2.0 | 14.0 | 0.00 | 0.00 | 0.00 | 30 | 998.4 |
| 20260504231158 | 79 | 63 | 2.0 | 10.0 | 0.00 | 0.00 | 0.00 | 28 | 998.4 |
| 20260504231152 | 79 | 260 | 2.0 | 9.0 | 0.00 | 0.00 | 0.00 | 30 | 998.4 |
| 20260504231148 | 78 | 251 | 4.0 | 9.0 | 0.00 | 0.00 | 0.00 | 31 | 998.4 |
| 20260504231140 | 77 | 226 | 5.0 | 11.0 | 0.00 | 0.00 | 0.00 | 32 | 998.7 |
| 20260504231128 | 77 | 265 | 3.0 | 11.0 | 0.00 | 0.00 | 0.00 | 32 | 998.7 |
| 20260504231121 | 77 | 248 | 5.0 | 10.0 | 0.00 | 0.00 | 0.00 | 31 | 999.0 |
| 20260504231117 | 78 | 268 | 3.0 | 13.0 | 0.00 | 0.00 | 0.00 | 32 | 999.0 |
| 20260504231110 | 77 | 260 | 4.0 | 13.0 | 0.00 | 0.00 | 0.00 | 32 | 999.0 |
| 20260504231106 | 76 | 272 | 5.0 | 13.0 | 0.00 | 0.00 | 0.00 | 34 | 999.0 |
| 20260504231058 | 77 | 259 | 5.0 | 15.0 | 0.00 | 0.00 | 0.00 | 32 | 999.0 |
| 20260504231053 | 78 | 288 | 8.0 | 15.0 | 0.00 | 0.00 | 0.00 | 34 | 999.0 |
| 20260504231046 | 77 | 245 | 7.0 | 11.0 | 0.00 | 0.00 | 0.00 | 33 | 999.0 |
| 20260504231042 | 77 | 234 | 4.0 | 11.0 | 0.00 | 0.00 | 0.00 | 32 | 999.0 |
| 20260504231028 | 77 | 203 | 11.0 | 15.0 | 0.00 | 0.00 | 0.00 | 34 | 999.0 |
| 20260504231020 | 67 | 227 | 4.0 | 8.0 | 0.11 | 0.11 | 0.11 | 57 | 996.9 |
| 20260504183411 | 77 | 294 | 6.0 | 15.0 | 0.00 | 0.00 | 0.00 | 33 | 999.0 |
| 20260504182914 | 77 | 215 | 4.0 | 9.0 | 0.00 | 0.00 | 0.00 | 36 | 999.0 |
| 20260504182638 | 76 | 253 | 5.0 | 8.0 | 0.00 | 0.00 | 0.00 | 39 | 999.0 |
| 20260504181911 | 76 | 278 | 5.0 | 8.0 | 0.00 | 0.00 | 0.00 | 34 | 999.4 |
| 20260504181410 | 76 | 260 | 4.0 | 11.0 | 0.00 | 0.00 | 0.00 | 36 | 999.4 |
| 20260504180912 | 76 | 245 | 7.0 | 11.0 | 0.00 | 0.00 | 0.00 | 35 | 999.0 |
| 20260504180409 | 76 | 222 | 5.0 | 11.0 | 0.00 | 0.00 | 0.00 | 36 | 999.4 |
| 20260504180133 | 75 | 188 | 2.0 | 11.0 | 0.00 | 0.00 | 0.00 | 35 | 999.4 |
| 20260504175408 | 75 | 292 | 5.0 | 15.0 | 0.00 | 0.00 | 0.00 | 40 | 999.4 |
| 20260504174909 | 75 | 273 | 3.0 | 15.0 | 0.00 | 0.00 | 0.00 | 39 | 999.4 |
| 20260504174407 | 75 | 203 | 5.0 | 8.0 | 0.00 | 0.00 | 0.00 | 38 | 999.7 |
| 20260504173907 | 74 | 268 | 5.0 | 8.0 | 0.00 | 0.00 | 0.00 | 39 | 999.7 |
| 20260504173406 | 74 | 259 | 4.0 | 15.0 | 0.00 | 0.00 | 0.00 | 38 | 1000.1 |
| 20260504172905 | 74 | 207 | 2.0 | 15.0 | 0.00 | 0.00 | 0.00 | 38 | 1000.1 |
| 20260504172406 | 74 | 248 | 7.0 | 11.0 | 0.00 | 0.00 | 0.00 | 39 | 1000.1 |
| 20260504172128 | 73 | 291 | 3.0 | 12.0 | 0.00 | 0.00 | 0.00 | 38 | 1000.1 |
| 20260504171403 | 73 | 271 | 4.0 | 12.0 | 0.00 | 0.00 | 0.00 | 40 | 1000.1 |
| 20260504170905 | 73 | 245 | 6.0 | 10.0 | 0.00 | 0.00 | 0.00 | 39 | 1000.1 |
| 20260504170403 | 73 | 262 | 4.0 | 10.0 | 0.00 | 0.00 | 0.00 | 40 | 1000.1 |
| 20260504160356 | 70 | 192 | 4.0 | 13.0 | 0.00 | 0.01 | 0.00 | 46 | 1001.1 |
| 20260504151109 | 68 | 234 | 4.0 | 11.0 | 0.00 | 0.02 | 0.00 | 50 | 1001.7 |
| 20260504150349 | 68 | 231 | 5.0 | 11.0 | 0.00 | 0.02 | 0.00 | 49 | 1001.7 |
| 20260504140844 | 62 | 182 | 2.0 | 6.0 | 0.00 | 0.02 | 0.00 | 57 | 1002.2 |
| 20260504140342 | 62 | 217 | 4.0 | 6.0 | 0.00 | 0.02 | 0.00 | 59 | 1002.2 |
| 20260504130336 | 55 | 193 | 2.0 | 8.0 | 0.00 | 0.02 | 0.00 | 70 | 1002.9 |